Portland, ME

10:33 PM EDT on April 25, 2017 (GMT -0400)
Portland International

Weather History for KPWM - June, 2013

Change the Weather History Date:

Wednesday, June 19, 2013

  Actual Average Record
Temperature  
Mean Temperature 63 °F 65 °F  
Max Temperature 75 °F 75 °F 94 °F (1995)
Min Temperature 50 °F 55 °F 38 °F (1956)
Degree Days  
Heating Degree Days 2 3  
Month to date heating degree days 67 87  
Since 1 June heating degree days 67 87  
Since 1 July heating degree days 6559 7088  
Cooling Degree Days 0 2  
Month to date cooling degree days 27 27  
Year to date cooling degree days 42 34  
Since 1 June cooling degree days 27 27  
Growing Degree Days 12 (Base 50)    
Moisture  
Dew Point 49 °F    
Average Humidity 67    
Maximum Humidity 100    
Minimum Humidity 33    
Precipitation  
Precipitation 0.00 in 0.12 in 3.21 in (2009)
Month to date precipitation 3.83 2.56  
Year to date precipitation 19.63 21.76  
Snow  
Snow 0.00 in 0.00 in 0.00 in (2002)
Month to date snowfall 0.0 0.0  
Since 1 June snowfall 0.0 0.0  
Since 1 July snowfall 98.0 61.9  
Snow Depth 0.00 in    
Sea Level Pressure  
Sea Level Pressure 30.00 in    
Wind  
Wind Speed 6 mph (NW)    
Max Wind Speed 15 mph    
Max Gust Speed 23 mph    
Visibility 8 miles    
Events      
T = Trace of Precipitation, MM = Missing Value Source: NWS Daily Summary

Daily Weather History Graph

Daily Weather History Graph

Search for Another Location

Airport or City:

Trip Planner

Search our weather history database for the weather conditions in past years. The results will help you decide how hot, cold, wet, or windy it might be!

Date:

Astronomy

Jun. 19, 2013 Rise Set
Actual Time 4:59 AM EDT 8:25 PM EDT
Civil Twilight 4:23 AM EDT 9:01 PM EDT
Nautical Twilight 3:36 AM EDT 9:49 PM EDT
Astronomical Twilight 2:36 AM EDT 10:48 PM EDT
Moon 4:09 PM EDT (6/19) 1:48 AM EDT (6/19)
Length of Visible Light 16h 38m
Length of Day
15h 26m
Waxing Gibbous, 80% of the Moon is Illuminated
Jun 19
Waxing Gibbous
Jun 23
Full
Jun 30
Last Quarter
Jul 8
New
Jul 15
First Quarter

Hourly Weather History & Observations

Time (EDT) Temp. Dew Point Humidity Pressure Visibility Wind Dir Wind Speed Gust Speed Precip Events Conditions
12:51 AM 57.9 °F 57.0 °F 97% 29.94 in 10.0 mi Calm Calm - N/A   Overcast
1:51 AM 55.0 °F 54.0 °F 96% 29.94 in 9.0 mi WNW 4.6 mph - N/A   Partly Cloudy
2:51 AM 55.0 °F 53.1 °F 93% 29.93 in 6.0 mi Calm Calm - N/A   Clear
3:02 AM 54.0 °F 53.1 °F 97% 29.93 in 1.5 mi Calm Calm - N/A   Clear
3:12 AM 55.0 °F 54.0 °F 96% 29.93 in 4.0 mi West 3.5 mph - N/A   Clear
3:31 AM 52.0 °F 52.0 °F 100% 29.94 in 2.5 mi WNW 5.8 mph - N/A   Partly Cloudy
3:33 AM 52.0 °F 52.0 °F 100% 29.93 in 1.2 mi WNW 4.6 mph - N/A   Scattered Clouds
3:35 AM 52.0 °F 51.1 °F 97% 29.93 in 0.8 mi WNW 4.6 mph - N/A   Mist
3:42 AM 51.1 °F 51.1 °F 100% 29.93 in 1.2 mi NW 3.5 mph - N/A   Partly Cloudy
3:44 AM 51.1 °F 51.1 °F 100% 29.93 in 3.0 mi Calm Calm - N/A   Partly Cloudy
3:51 AM 51.1 °F 51.1 °F 100% 29.94 in 10.0 mi NNW 3.5 mph - N/A   Partly Cloudy
4:51 AM 52.0 °F 50.0 °F 93% 29.94 in 10.0 mi NNW 3.5 mph - N/A   Partly Cloudy
5:51 AM 52.0 °F 50.0 °F 93% 29.96 in 10.0 mi NW 3.5 mph - N/A   Partly Cloudy
6:51 AM 55.9 °F 50.0 °F 80% 29.97 in 10.0 mi North 6.9 mph - N/A   Clear
7:51 AM 60.1 °F 48.9 °F 67% 29.97 in 10.0 mi North 9.2 mph - N/A   Clear
8:51 AM 64.0 °F 48.9 °F 58% 29.99 in 10.0 mi North 6.9 mph - N/A   Clear
9:51 AM 66.0 °F 48.9 °F 54% 29.99 in 10.0 mi NNW 9.2 mph - N/A   Clear
10:51 AM 69.1 °F 46.9 °F 45% 30.01 in 10.0 mi North 12.7 mph - N/A   Scattered Clouds
11:51 AM 72.0 °F 48.0 °F 43% 30.01 in 10.0 mi NE 10.4 mph - N/A   Scattered Clouds
12:51 PM 72.0 °F 45.0 °F 38% 30.01 in 10.0 mi Variable 3.5 mph - N/A   Scattered Clouds
1:51 PM 72.0 °F 43.0 °F 35% 30.00 in 10.0 mi West 8.1 mph - N/A   Scattered Clouds
2:51 PM 73.9 °F 43.0 °F 33% 30.01 in 10.0 mi WNW 9.2 mph - N/A   Partly Cloudy
3:51 PM 75.0 °F 44.1 °F 33% 30.01 in 10.0 mi West 6.9 mph - N/A   Partly Cloudy
4:51 PM 73.9 °F 43.0 °F 33% 30.02 in 10.0 mi WNW 11.5 mph - N/A   Clear
5:51 PM 73.9 °F 43.0 °F 33% 30.02 in 10.0 mi WNW 10.4 mph - N/A   Clear
6:51 PM 68.0 °F 50.0 °F 52% 30.04 in 10.0 mi WNW 8.1 mph - N/A   Clear
7:51 PM 64.0 °F 51.1 °F 63% 30.06 in 10.0 mi WNW 8.1 mph - N/A   Clear
8:51 PM 62.1 °F 50.0 °F 65% 30.08 in 10.0 mi Calm Calm - N/A   Mostly Cloudy
9:51 PM 62.1 °F 46.9 °F 58% 30.12 in 10.0 mi West 3.5 mph - N/A   Overcast
10:51 PM 57.9 °F 48.0 °F 70% 30.13 in 10.0 mi Calm Calm - N/A   Scattered Clouds
11:51 PM 57.0 °F 48.0 °F 72% 30.15 in 10.0 mi Calm Calm - N/A   Clear